This demonstration page uses our WeatherBlox Daily Observations layout. Learn more.

Left ArrowRight Arrow

Hourly Observations for June 18, 2019

Temp ( °F °C ) Dew Point ( °F °C ) Humidity (%) Winds ( mph kmh ) Pressure ( in mb ) Visibility ( mi km ) Precip ( " mm )
12:56 am 00:56 Mostly Cloudy 70 21 61 16 73 73 ENE 3 6 29.91 1013 10 16 0.00 0.00
1:56 am 01:56 Mostly Cloudy 70 21 63 17 78 78 E 5 7 29.90 1013 10 16 0.00 0.00
2:56 am 02:56 Mostly Cloudy 70 21 63 17 78 78 NNE 5 7 29.90 1013 10 16 0.00 0.00
3:56 am 03:56 Mostly Cloudy 68 20 63 17 83 83 NE 3 6 29.89 1012 10 16 0.00 0.00
4:56 am 04:56 Cloudy 68 20 63 17 83 83 E 3 6 29.89 1012 10 16 0.00 0.00
5:56 am 05:56 Mostly Cloudy 70 21 63 17 78 78 Calm 29.90 1012 10 16 0.00 0.00
6:56 am 06:56 Mostly Cloudy 70 21 63 17 78 78 Calm 29.90 1013 10 16 0.00 0.00
7:56 am 07:56 Mostly Cloudy with Light Rain 68 20 63 17 83 83 NE 3 6 29.91 1013 10 16 0.00 0.03
8:44 am 08:44 Mostly Cloudy 68 20 64 18 88 88 NNE 5 7 29.91 1013 10 16 0.00 0.00
8:56 am 08:56 Mostly Cloudy 70 21 64 18 83 83 NNE 5 7 29.91 1013 10 16 0.01 0.25
9:56 am 09:56 Mostly Cloudy 72 22 64 18 78 78 ENE 7 11 29.90 1013 10 16 0.00 0.00
10:56 am 10:56 undefined N/A N/A N/A Calm N/A N/A 0.00 0.00
11:25 am 11:25 Mostly Cloudy with Light Rain 73 23 64 18 74 74 NE 6 9 29.90 1013 6 10 0.00 0.00
11:56 am 11:56 Mostly Cloudy with Light Rain 73 23 64 18 74 74 N 7 11 29.90 1012 6 10 0.00 0.00
12:56 pm 12:56 Mostly Cloudy 73 23 63 17 69 69 NE 3 6 29.88 1012 7 11 0.00 0.00
1:56 pm 13:56 Mostly Cloudy 73 23 64 18 74 74 NE 3 6 29.88 1012 7 11 0.00 0.00
2:56 pm 14:56 Cloudy with Light Showers 70 21 64 18 83 83 N 8 13 29.88 1012 4 6 0.03 0.76
3:56 pm 15:56 Mostly Cloudy with Light Showers 68 20 66 19 94 94 NNE 5 7 29.88 1012 5 8 0.00 0.00
4:56 pm 16:56 Mostly Cloudy with Showers 68 20 64 18 88 88 NNE 6 9 29.87 1012 4 6 0.00 0.00
5:56 pm 17:56 Mostly Cloudy with Light Showers 68 20 64 18 88 88 NE 6 9 29.87 1011 5 8 0.00 0.00
6:56 pm 18:56 Mostly Cloudy with Light Showers 66 19 64 18 94 94 ENE 3 6 29.86 1011 5 8 0.00 0.00
7:56 pm 19:56 Mostly Cloudy with Light Rain 68 20 64 18 88 88 ENE 7 11 29.84 1011 6 10 0.00 0.00
8:57 pm 20:57 Mostly Cloudy with Light Rain 66 19 63 17 88 88 NE 7 11 29.82 1010 6 10 0.00 0.00
9:56 pm 21:56 Mostly Cloudy with Light Showers 66 19 63 17 88 88 Calm 29.83 1010 6 10 0.00 0.00
10:56 pm 22:56 Mostly Cloudy with Light Rain 66 19 63 17 88 88 NNE 3 6 29.85 1011 6 10 0.00 0.00
11:56 pm 23:56 Cloudy with Mist and Fog N/A N/A N/A N 5 7 29.84 1010 6 10 0.00 0.00

Powered by AerisWeather